TimeEDT,TemperatureF,Dew PointF,Humidity,Sea Level PressureIn,VisibilityMPH,Wind Direction,Wind SpeedMPH,Gust SpeedMPH,PrecipitationIn,Events,Conditions,WindDirDegrees,DateUTC
12:53 AM,73.9,68.0,82,30.10,10.0,SSE,3.5,-,N/A,,Mostly Cloudy,160,2013-07-04 04:53:00
1:03 AM,73.4,68.0,83,30.12,10.0,SSE,5.8,-,N/A,,Mostly Cloudy,160,2013-07-04 05:03:00
1:16 AM,73.4,68.0,83,30.12,10.0,South,4.6,-,N/A,,Scattered Clouds,170,2013-07-04 05:16:00
1:53 AM,73.0,68.0,84,30.10,10.0,South,5.8,-,N/A,,Clear,180,2013-07-04 05:53:00
2:53 AM,72.0,66.9,84,30.10,10.0,South,4.6,-,N/A,,Clear,170,2013-07-04 06:53:00
3:53 AM,72.0,66.9,84,30.10,10.0,SE,3.5,-,N/A,,Mostly Cloudy,140,2013-07-04 07:53:00
4:53 AM,71.1,66.0,84,30.10,10.0,SE,3.5,-,0.00,,Mostly Cloudy,130,2013-07-04 08:53:00
5:23 AM,71.6,66.2,83,30.11,10.0,SE,3.5,-,N/A,,Overcast,130,2013-07-04 09:23:00
5:34 AM,71.6,66.2,83,30.12,10.0,SE,3.5,-,N/A,,Overcast,130,2013-07-04 09:34:00
5:53 AM,71.1,66.0,84,30.10,10.0,SE,4.6,-,N/A,,Overcast,130,2013-07-04 09:53:00
6:24 AM,69.8,66.2,88,30.12,10.0,Calm,Calm,-,0.00,Rain,Light Rain,0,2013-07-04 10:24:00
6:53 AM,70.0,66.0,87,30.12,10.0,SSE,3.5,-,0.01,Rain,Light Rain,150,2013-07-04 10:53:00
7:17 AM,69.8,66.2,88,30.14,2.5,SSE,4.6,-,0.05,Rain,Heavy Rain,150,2013-07-04 11:17:00
7:27 AM,69.8,66.2,88,30.14,2.5,SSE,3.5,-,0.08,Rain,Rain,160,2013-07-04 11:27:00
7:31 AM,69.8,66.2,88,30.14,3.0,SE,3.5,-,0.09,Rain,Rain,140,2013-07-04 11:31:00
7:38 AM,69.8,66.2,88,30.14,3.0,SSE,3.5,-,0.10,Rain,Rain,160,2013-07-04 11:38:00
7:53 AM,68.0,66.9,96,30.13,4.0,SE,3.5,-,0.13,Rain,Light Rain,140,2013-07-04 11:53:00
8:06 AM,68.0,66.2,94,30.14,2.5,ESE,4.6,-,0.04,Rain,Rain,120,2013-07-04 12:06:00
8:14 AM,68.0,66.2,94,30.15,1.5,ESE,3.5,-,0.10,Rain,Heavy Rain,120,2013-07-04 12:14:00
8:26 AM,68.0,66.2,94,30.15,2.5,Calm,Calm,-,0.13,Rain,Rain,0,2013-07-04 12:26:00
8:34 AM,68.0,66.2,94,30.15,4.0,SE,3.5,-,0.15,Rain,Light Rain,130,2013-07-04 12:34:00
8:53 AM,69.1,66.9,93,30.13,9.0,East,3.5,-,0.17,Rain,Light Rain,100,2013-07-04 12:53:00
9:15 AM,69.8,66.2,88,30.14,10.0,SE,3.5,-,0.00,Rain,Light Rain,140,2013-07-04 13:15:00
9:32 AM,69.8,66.2,88,30.14,10.0,Calm,Calm,-,0.00,Rain,Light Rain,0,2013-07-04 13:32:00
9:39 AM,69.8,66.2,88,30.14,8.0,East,3.5,-,0.01,Rain,Light Rain,100,2013-07-04 13:39:00
9:53 AM,69.1,66.9,93,30.14,7.0,SSE,3.5,-,0.01,Rain,Light Rain,160,2013-07-04 13:53:00
10:01 AM,69.8,66.2,88,30.15,1.8,Calm,Calm,-,0.04,Rain,Heavy Rain,0,2013-07-04 14:01:00
10:14 AM,69.8,66.2,88,30.14,3.0,Calm,Calm,-,0.08,Rain,Light Rain,0,2013-07-04 14:14:00
10:53 AM,69.1,68.0,96,30.13,4.0,SE,3.5,-,0.09,Rain,Light Rain,130,2013-07-04 14:53:00
11:00 AM,69.8,66.2,88,30.15,3.0,ESE,3.5,-,0.01,Rain,Light Rain,110,2013-07-04 15:00:00
11:21 AM,69.8,68.0,94,30.15,10.0,Calm,Calm,-,0.01,Rain,Light Rain,0,2013-07-04 15:21:00
11:53 AM,70.0,68.0,93,30.15,2.0,SSE,3.5,-,0.06,Rain,Rain,150,2013-07-04 15:53:00
12:00 PM,69.8,68.0,94,30.15,2.5,Calm,Calm,-,0.02,Rain,Rain,0,2013-07-04 16:00:00
12:10 PM,69.8,68.0,94,30.15,3.0,Calm,Calm,-,0.04,Rain,Rain,0,2013-07-04 16:10:00
12:49 PM,71.6,69.8,94,30.15,7.0,Calm,Calm,-,0.10,Rain,Light Rain,0,2013-07-04 16:49:00
12:53 PM,70.0,68.0,93,30.14,6.0,Calm,Calm,-,0.10,Rain,Light Rain,0,2013-07-04 16:53:00
1:07 PM,69.8,68.0,94,30.15,3.0,Calm,Calm,-,0.03,Rain,Rain,0,2013-07-04 17:07:00
1:53 PM,71.1,68.0,90,30.14,8.0,Calm,Calm,-,0.10,Rain,Light Rain,0,2013-07-04 17:53:00
2:53 PM,71.1,69.1,93,30.11,9.0,Calm,Calm,-,0.05,Rain,Light Rain,0,2013-07-04 18:53:00
3:49 PM,71.6,69.8,94,30.12,10.0,SSE,4.6,-,0.01,Rain,Light Rain,150,2013-07-04 19:49:00
3:53 PM,71.1,69.1,93,30.11,10.0,SSE,4.6,-,0.01,Rain,Light Rain,150,2013-07-04 19:53:00
4:08 PM,71.6,69.8,94,30.12,10.0,South,4.6,-,0.01,Rain,Light Rain,170,2013-07-04 20:08:00
4:19 PM,71.6,69.8,94,30.11,10.0,SE,3.5,-,0.02,Rain,Light Rain,130,2013-07-04 20:19:00
4:41 PM,71.6,69.8,94,30.10,10.0,Calm,Calm,-,0.02,Rain,Light Rain,0,2013-07-04 20:41:00
4:53 PM,72.0,69.1,91,30.09,10.0,Calm,Calm,-,0.02,Rain,Light Rain,0,2013-07-04 20:53:00
5:13 PM,71.6,69.8,94,30.09,10.0,ESE,3.5,-,0.01,Rain,Light Rain,110,2013-07-04 21:13:00
5:22 PM,71.6,69.8,94,30.10,10.0,ESE,4.6,-,0.01,Rain,Light Rain,120,2013-07-04 21:22:00
5:53 PM,71.1,69.1,93,30.09,10.0,SE,3.5,-,0.03,Rain,Light Rain,140,2013-07-04 21:53:00
6:00 PM,71.6,69.8,94,30.09,10.0,SSE,3.5,-,0.00,Rain,Light Rain,160,2013-07-04 22:00:00
6:07 PM,71.6,69.8,94,30.09,10.0,South,3.5,-,0.00,Rain,Light Rain,190,2013-07-04 22:07:00
6:21 PM,71.6,69.8,94,30.08,10.0,Calm,Calm,-,0.00,Rain,Light Rain,0,2013-07-04 22:21:00
6:34 PM,71.6,69.8,94,30.07,10.0,Calm,Calm,-,0.01,Rain,Light Rain,0,2013-07-04 22:34:00
6:53 PM,71.1,69.1,93,30.08,10.0,SW,4.6,-,0.01,Rain,Light Rain,230,2013-07-04 22:53:00
7:11 PM,71.6,69.8,94,30.11,10.0,SSW,5.8,-,0.00,,Overcast,210,2013-07-04 23:11:00
7:28 PM,71.6,69.8,94,30.11,8.0,SSW,4.6,-,0.00,Rain,Light Rain,210,2013-07-04 23:28:00
7:43 PM,69.8,68.0,94,30.11,7.0,SSW,3.5,-,0.00,Rain,Light Rain,200,2013-07-04 23:43:00
7:51 PM,69.8,69.8,100,30.11,6.0,SSW,5.8,-,0.01,Rain,Light Rain,200,2013-07-04 23:51:00
7:53 PM,70.0,68.0,93,30.11,6.0,SSW,4.6,-,0.01,Rain,Light Rain,210,2013-07-04 23:53:00
8:14 PM,69.8,68.0,94,30.10,10.0,SE,4.6,-,0.00,,Scattered Clouds,140,2013-07-05 00:14:00
8:53 PM,69.1,66.9,93,30.07,10.0,Calm,Calm,-,0.00,,Scattered Clouds,0,2013-07-05 00:53:00
9:53 PM,69.1,66.9,93,30.07,3.0,Calm,Calm,-,N/A,,Clear,0,2013-07-05 01:53:00
10:05 PM,69.8,66.2,88,30.09,2.0,Calm,Calm,-,N/A,,Clear,0,2013-07-05 02:05:00
10:16 PM,68.0,66.2,94,30.10,1.8,West,3.5,-,N/A,,Clear,260,2013-07-05 02:16:00
10:23 PM,68.0,66.2,94,30.10,3.0,West,4.6,-,N/A,,Partly Cloudy,270,2013-07-05 02:23:00
10:53 PM,69.1,66.0,90,30.09,3.0,Calm,Calm,-,N/A,,Scattered Clouds,0,2013-07-05 02:53:00
11:03 PM,68.0,66.2,94,30.11,2.5,SSE,3.5,-,N/A,,Partly Cloudy,150,2013-07-05 03:03:00
11:19 PM,68.0,66.2,94,30.13,2.5,WSW,4.6,-,N/A,,Scattered Clouds,240,2013-07-05 03:19:00
11:39 PM,68.0,64.4,88,30.11,3.0,Calm,Calm,-,N/A,,Partly Cloudy,0,2013-07-05 03:39:00
11:53 PM,68.0,64.9,90,30.12,3.0,Calm,Calm,-,N/A,,Clear,0,2013-07-05 03:53:00